DAL2207 KLAS-KMSP

Flight info

Callsign DAL2207
Flight time N/A
Altitude 33000
Route GIDGT3 TUKRR DCT HBU DCT SNY DCT SSWAN TORGY4
Aircraft A321/M-SDE3FGHIRWY/LB1

Departure

Time 2026-05-04 00:42
Airport Harry Reid International Airport (KLAS)

Arrival

Time N/A
Airport Minneapolis–Saint Paul International Airport / Wold–Chamberlain Field (KMSP)
Time Latitude Longitude Altitude Speed Heading
2026-05-03 23:58 36.08025 -115.14057 2094 ft 0 kts 95°
2026-05-04 00:23 36.08026 -115.14069 2093 ft 3 kts 95°
2026-05-04 00:23 36.08028 -115.14094 2094 ft 3 kts 95°
2026-05-04 00:24 36.08030 -115.14119 2094 ft 3 kts 95°
2026-05-04 00:24 36.08031 -115.14142 2094 ft 3 kts 109°
2026-05-04 00:24 36.08039 -115.14157 2094 ft 3 kts 167°
2026-05-04 00:24 36.08052 -115.14159 2095 ft 2 kts 180°
2026-05-04 00:25 36.08067 -115.14159 2095 ft 1 kts 180°
2026-05-04 00:25 36.08069 -115.14159 2095 ft 0 kts 180°
2026-05-04 00:29 36.08055 -115.14159 2095 ft 6 kts 180°
2026-05-04 00:29 36.07992 -115.14158 2095 ft 10 kts 180°
2026-05-04 00:29 36.07959 -115.14158 2095 ft 2 kts 180°
2026-05-04 00:30 36.07952 -115.14158 2095 ft 0 kts 180°
2026-05-04 00:31 36.07947 -115.14158 2095 ft 4 kts 180°
2026-05-04 00:32 36.07889 -115.14159 2094 ft 12 kts 180°
2026-05-04 00:32 36.07809 -115.14158 2094 ft 11 kts 178°
2026-05-04 00:32 36.07755 -115.14111 2094 ft 9 kts 110°
2026-05-04 00:32 36.07754 -115.14037 2093 ft 8 kts 89°
2026-05-04 00:33 36.07754 -115.13973 2093 ft 7 kts 90°
2026-05-04 00:33 36.07754 -115.13805 2093 ft 13 kts 90°
2026-05-04 00:33 36.07754 -115.13683 2092 ft 17 kts 90°
2026-05-04 00:34 36.07754 -115.13514 2091 ft 20 kts 90°
2026-05-04 00:34 36.07754 -115.13352 2089 ft 19 kts 90°
2026-05-04 00:34 36.07754 -115.13189 2085 ft 19 kts 90°
2026-05-04 00:34 36.07753 -115.13016 2078 ft 21 kts 90°
2026-05-04 00:35 36.07754 -115.12824 2070 ft 23 kts 90°
2026-05-04 00:35 36.07755 -115.12624 2063 ft 23 kts 89°
2026-05-04 00:35 36.07755 -115.12429 2057 ft 19 kts 91°
2026-05-04 00:35 36.07755 -115.12285 2053 ft 11 kts 90°
2026-05-04 00:36 36.07755 -115.12264 2052 ft 0 kts 90°
2026-05-04 00:37 36.07755 -115.12263 2052 ft 0 kts 90°
2026-05-04 00:37 36.07754 -115.12250 2051 ft 2 kts 90°
2026-05-04 00:37 36.07754 -115.12219 2051 ft 5 kts 90°
2026-05-04 00:38 36.07754 -115.12175 2050 ft 5 kts 94°
2026-05-04 00:38 36.07740 -115.12139 2053 ft 2 kts 134°
2026-05-04 00:38 36.07739 -115.12138 2053 ft 0 kts 136°
2026-05-04 00:40 36.07737 -115.12136 2053 ft 2 kts 138°
2026-05-04 00:40 36.07696 -115.12126 2048 ft 5 kts 182°
2026-05-04 00:40 36.07659 -115.12133 2049 ft 6 kts 206°
2026-05-04 00:40 36.07645 -115.12171 2049 ft 5 kts 262°
2026-05-04 00:41 36.07645 -115.12226 2050 ft 9 kts 270°
2026-05-04 00:41 36.07644 -115.12499 2058 ft 60 kts 269°
2026-05-04 00:41 36.07641 -115.13250 2086 ft 113 kts 270°
2026-05-04 00:41 36.07638 -115.14409 2098 ft 155 kts 270°
2026-05-04 00:42 36.07644 -115.15884 2184 ft 183 kts 268°
2026-05-04 00:42 36.07673 -115.17404 2902 ft 171 kts 266°
2026-05-04 00:42 36.07750 -115.18854 3532 ft 166 kts 269°
2026-05-04 00:42 36.07882 -115.20228 3989 ft 162 kts 270°
2026-05-04 00:43 36.07904 -115.21635 4183 ft 169 kts 261°
2026-05-04 00:43 36.07847 -115.23136 4325 ft 180 kts 262°
2026-05-04 00:43 36.07786 -115.24732 4446 ft 192 kts 261°
2026-05-04 00:43 36.07800 -115.26453 4529 ft 213 kts 276°
2026-05-04 00:44 36.08484 -115.28250 4452 ft 252 kts 307°
2026-05-04 00:44 36.09952 -115.29469 4940 ft 261 kts 340°
2026-05-04 00:44 36.11739 -115.29684 5515 ft 261 kts
2026-05-04 00:44 36.13571 -115.29277 5683 ft 275 kts 18°
2026-05-04 00:45 36.15318 -115.28264 6053 ft 280 kts 33°
2026-05-04 00:45 36.16769 -115.26627 6303 ft 290 kts 55°
2026-05-04 00:45 36.17784 -115.24427 6624 ft 298 kts 71°
2026-05-04 00:45 36.18546 -115.22018 7197 ft 301 kts 72°
2026-05-04 00:46 36.19280 -115.19583 7811 ft 302 kts 77°
2026-05-04 00:46 36.19623 -115.17033 8411 ft 299 kts 92°
2026-05-04 00:46 36.19627 -115.14495 9020 ft 299 kts 94°
2026-05-04 00:46 36.19620 -115.11914 9626 ft 302 kts 93°
2026-05-04 00:47 36.19618 -115.10155 9938 ft 303 kts 94°
2026-05-04 00:47 36.19611 -115.03829 10372 ft 341 kts 94°
2026-05-04 00:47 36.19608 -115.01682 10463 ft 354 kts 93°
2026-05-04 00:48 36.19604 -114.91712 11481 ft 381 kts 93°
2026-05-04 00:48 36.19604 -114.88417 12006 ft 384 kts 94°
2026-05-04 00:49 36.19603 -114.85085 12467 ft 390 kts 92°
2026-05-04 00:49 36.19602 -114.81711 13013 ft 392 kts 94°
2026-05-04 00:49 36.19600 -114.78363 13472 ft 397 kts 92°
2026-05-04 00:49 36.19594 -114.74930 13955 ft 399 kts 94°
2026-05-04 00:50 36.19585 -114.71494 14468 ft 400 kts 94°
2026-05-04 00:50 36.19572 -114.68019 14921 ft 404 kts 95°
2026-05-04 00:50 36.19560 -114.64543 15429 ft 404 kts 94°
2026-05-04 00:50 36.19553 -114.61055 15911 ft 406 kts 94°
2026-05-04 00:51 36.19546 -114.57546 16346 ft 409 kts 95°
2026-05-04 00:51 36.19539 -114.54019 16860 ft 409 kts 94°
2026-05-04 00:51 36.19533 -114.50474 17311 ft 413 kts 94°
2026-05-04 00:51 36.19524 -114.46913 17753 ft 415 kts 92°
2026-05-04 00:52 36.19512 -114.43337 18170 ft 416 kts 92°
2026-05-04 00:52 36.19497 -114.39732 18446 ft 421 kts 93°
2026-05-04 00:52 36.19482 -114.36095 18796 ft 424 kts 94°
2026-05-04 00:52 36.19464 -114.32428 19128 ft 428 kts 94°
2026-05-04 00:53 36.19443 -114.28733 19457 ft 431 kts 94°
2026-05-04 00:53 36.19435 -114.25002 19786 ft 436 kts 91°
2026-05-04 00:53 36.19741 -114.21290 20092 ft 442 kts 84°
2026-05-04 00:53 36.20201 -114.17513 20377 ft 447 kts 84°
2026-05-04 00:54 36.20665 -114.13691 20684 ft 451 kts 84°
2026-05-04 00:54 36.21131 -114.09837 20985 ft 454 kts 84°
2026-05-04 00:54 36.21596 -114.05941 21247 ft 459 kts 84°
2026-05-04 00:54 36.22061 -114.02022 21550 ft 463 kts 85°
2026-05-04 00:55 36.22527 -113.98061 21874 ft 466 kts 85°
2026-05-04 00:55 36.22996 -113.94064 22181 ft 470 kts 85°
2026-05-04 00:55 36.23467 -113.90043 22453 ft 474 kts 85°
2026-05-04 00:55 36.23943 -113.85982 22784 ft 478 kts 85°
2026-05-04 00:56 36.24422 -113.81890 23071 ft 482 kts 85°
2026-05-04 00:56 36.24906 -113.77760 23351 ft 485 kts 85°
2026-05-04 00:56 36.25390 -113.73614 23596 ft 489 kts 85°
2026-05-04 00:56 36.25868 -113.69490 23843 ft 492 kts 85°
2026-05-04 00:57 36.26353 -113.65280 24051 ft 495 kts 84°
2026-05-04 00:57 36.26842 -113.61036 24320 ft 498 kts 84°
2026-05-04 00:57 36.27333 -113.56773 24554 ft 500 kts 84°
2026-05-04 00:57 36.27825 -113.52489 24780 ft 503 kts 85°
2026-05-04 00:58 36.28316 -113.48187 25007 ft 506 kts 84°
2026-05-04 00:58 36.28807 -113.43852 25241 ft 509 kts 84°
2026-05-04 00:58 36.29301 -113.39487 25459 ft 512 kts 84°
2026-05-04 00:58 36.29794 -113.35114 25724 ft 514 kts 84°
2026-05-04 00:59 36.30290 -113.30715 25949 ft 516 kts 84°
2026-05-04 00:59 36.30791 -113.26294 26152 ft 519 kts 82°
2026-05-04 00:59 36.31600 -113.21914 26371 ft 524 kts 73°
2026-05-04 00:59 36.32895 -113.17681 26598 ft 526 kts 65°
2026-05-04 01:00 36.34377 -113.13525 26789 ft 529 kts 65°
2026-05-04 01:00 36.35867 -113.09332 26959 ft 531 kts 65°
2026-05-04 01:00 36.37349 -113.05135 27145 ft 533 kts 65°
2026-05-04 01:00 36.38836 -113.00894 27346 ft 535 kts 66°
2026-05-04 01:01 36.40321 -112.96644 27563 ft 538 kts 66°
2026-05-04 01:01 36.41811 -112.92373 27759 ft 540 kts 65°
2026-05-04 01:01 36.43311 -112.88090 27958 ft 542 kts 65°
2026-05-04 01:01 36.44823 -112.83786 28168 ft 545 kts 65°
2026-05-04 01:02 36.46338 -112.79462 28412 ft 546 kts 65°
2026-05-04 01:02 36.47845 -112.75138 28705 ft 546 kts 65°
2026-05-04 01:02 36.49329 -112.70862 29009 ft 546 kts 65°
2026-05-04 01:02 36.50831 -112.66524 29232 ft 548 kts 65°
2026-05-04 01:03 36.52336 -112.62173 29531 ft 548 kts 65°
2026-05-04 01:03 36.53842 -112.57814 29850 ft 548 kts 65°
2026-05-04 01:03 36.55351 -112.53454 30099 ft 548 kts 64°
2026-05-04 01:03 36.56858 -112.49101 30300 ft 549 kts 64°
2026-05-04 01:04 36.58370 -112.44739 30559 ft 549 kts 64°
2026-05-04 01:04 36.59873 -112.40387 30917 ft 545 kts 64°
2026-05-04 01:04 36.61365 -112.36057 31234 ft 543 kts 64°
2026-05-04 01:04 36.62847 -112.31739 31548 ft 542 kts 64°
2026-05-04 01:05 36.64326 -112.27422 31825 ft 542 kts 64°
2026-05-04 01:05 36.65803 -112.23111 32094 ft 541 kts 64°
2026-05-04 01:05 36.67282 -112.18788 32369 ft 540 kts 64°
2026-05-04 01:05 36.68749 -112.14489 32635 ft 539 kts 64°
2026-05-04 01:06 36.70212 -112.10193 32861 ft 539 kts 64°
2026-05-04 01:06 36.73110 -112.01682 32886 ft 534 kts 64°
2026-05-04 01:07 36.76012 -111.93153 32861 ft 534 kts 64°
2026-05-04 01:07 36.78905 -111.84618 32855 ft 534 kts 64°
2026-05-04 01:08 36.81786 -111.76079 32827 ft 534 kts 64°
2026-05-04 01:08 36.84665 -111.67527 32827 ft 534 kts 64°